Oxnard, CA

11:00 AM PDT on May 22, 2017 (GMT -0700)
Oxnard

Weather History for KOXR - April, 2013

Change the Weather History Date:

Thursday, April 25, 2013

  Actual Average Record
Temperature  
Mean Temperature 59 °F -  
Max Temperature 68 °F 67 °F 87 °F (1965)
Min Temperature 52 °F 49 °F 40 °F (1961)
Degree Days  
Heating Degree Days 6    
Growing Degree Days 9 (Base 50)    
Moisture  
Dew Point 48 °F    
Average Humidity 68    
Maximum Humidity 86    
Minimum Humidity 43    
Precipitation  
Precipitation 0.00 in - - ()
Sea Level Pressure  
Sea Level Pressure 30.05 in    
Wind  
Wind Speed 4 mph (WSW)    
Max Wind Speed 13 mph    
Max Gust Speed 67 mph    
Visibility 10 miles    
Events      
Averages and records for this station are not official NWS values.
T = Trace of Precipitation, MM = Missing Value Source: NWS Daily Summary

Daily Weather History Graph

Daily Weather History Graph

Search for Another Location

Airport or City:

Trip Planner

Search our weather history database for the weather conditions in past years. The results will help you decide how hot, cold, wet, or windy it might be!

Date:

Astronomy

Apr. 25, 2013 Rise Set
Actual Time 6:13 AM PDT 7:36 PM PDT
Civil Twilight 5:47 AM PDT 8:02 PM PDT
Nautical Twilight 5:15 AM PDT 8:34 PM PDT
Astronomical Twilight 4:42 AM PDT 9:07 PM PDT
Moon 7:53 PM PDT (4/25) 5:59 AM PDT (4/25)
Length of Visible Light 14h 15m
Length of Day
13h 23m
Full, 100% of the Moon is Illuminated
Apr 25
Full
Apr 25
Full
May 2
Last Quarter
May 9
New
May 17
First Quarter

Hourly Weather History & Observations

Time (PDT) Temp. Dew Point Humidity Pressure Visibility Wind Dir Wind Speed Gust Speed Precip Events Conditions
12:51 AM 55.0 °F 51.1 °F 86% 29.98 in 10.0 mi North 3.5 mph - N/A   Clear
1:51 AM 55.0 °F 50.0 °F 83% 29.97 in 10.0 mi Calm Calm - N/A   Clear
2:51 AM 54.0 °F 50.0 °F 86% 29.96 in 10.0 mi SSE 4.6 mph - N/A   Mostly Cloudy
3:51 AM 53.1 °F 48.9 °F 86% 29.98 in 10.0 mi Calm Calm - N/A   Mostly Cloudy
4:51 AM 52.0 °F 48.0 °F 86% 29.99 in 10.0 mi Calm Calm - N/A   Clear
5:51 AM 52.0 °F 48.0 °F 86% 30.00 in 10.0 mi Calm Calm - N/A   Clear
6:51 AM 53.1 °F 48.0 °F 83% 30.02 in 9.0 mi Calm Calm - N/A   Clear
7:51 AM 57.9 °F 50.0 °F 75% 30.04 in 9.0 mi Calm Calm - N/A   Clear
8:51 AM 61.0 °F 46.0 °F 58% 30.04 in 10.0 mi Calm Calm - N/A   Clear
9:51 AM 63.0 °F 45.0 °F 52% 30.06 in 10.0 mi Calm Calm - N/A   Clear
10:51 AM 66.0 °F 44.1 °F 45% 30.07 in 10.0 mi WSW 8.1 mph - N/A   Clear
11:51 AM 64.9 °F 44.1 °F 47% 30.08 in 10.0 mi SW 8.1 mph - N/A   Clear
12:51 PM 66.0 °F 43.0 °F 43% 30.06 in 10.0 mi WSW 9.2 mph - N/A   Clear
1:51 PM 66.0 °F 45.0 °F 47% 30.07 in 10.0 mi WSW 10.4 mph - N/A   Clear
2:51 PM 66.0 °F 45.0 °F 47% 30.07 in 10.0 mi WSW 8.1 mph - N/A   Clear
3:51 PM 64.9 °F 45.0 °F 48% 30.06 in 10.0 mi WSW 11.5 mph - N/A   Clear
4:51 PM 66.0 °F 50.0 °F 56% 30.06 in 10.0 mi WSW 10.4 mph - N/A   Clear
5:51 PM 64.0 °F 50.0 °F 60% 30.05 in 10.0 mi WNW 12.7 mph - N/A   Clear
6:51 PM 61.0 °F 51.1 °F 70% 30.06 in 10.0 mi North - - N/A   Clear
7:51 PM 59.0 °F 51.1 °F 75% 30.06 in 10.0 mi West 9.2 mph - N/A   Clear
8:51 PM 60.1 °F 51.1 °F 72% 30.08 in 10.0 mi West 5.8 mph - N/A   Clear
9:51 PM 57.0 °F 51.1 °F 81% 30.10 in 10.0 mi West 9.2 mph - N/A   Clear
9:59 PM 57.2 °F 51.8 °F 82% 30.10 in 10.0 mi Variable 3.5 mph 66.7 mph N/A   Squalls
10:51 PM 59.0 °F 51.1 °F 75% 30.11 in 10.0 mi Calm Calm - N/A   Clear
11:51 PM 55.9 °F 50.0 °F 80% 30.12 in 10.0 mi Calm Calm - N/A   Clear